EZY16YV EGAC-EGCC

Flight info

Callsign EZY16YV
Flight time 0h 37m
Altitude 23000
Route DUFFY L15 PEPOD Q38 MAKUX
Aircraft A320/M-SDE1E2E3FGHIRWXY/LB1

Departure

Time 2026-04-25 18:51
Airport George Best Belfast City Airport (EGAC)

Arrival

Time 2026-04-25 19:28
Airport Manchester Airport (EGCC)
Time Latitude Longitude Altitude Speed Heading
2026-04-25 18:13 54.61415 -5.87274 21 ft 0 kts 128°
2026-04-25 18:41 54.61417 -5.87277 21 ft 2 kts 127°
2026-04-25 18:41 54.61428 -5.87314 21 ft 4 kts 91°
2026-04-25 18:42 54.61421 -5.87353 22 ft 4 kts 44°
2026-04-25 18:42 54.61417 -5.87361 25 ft 0 kts 37°
2026-04-25 18:44 54.61422 -5.87354 21 ft 2 kts 36°
2026-04-25 18:45 54.61448 -5.87323 21 ft 7 kts 35°
2026-04-25 18:45 54.61499 -5.87262 21 ft 11 kts 34°
2026-04-25 18:45 54.61567 -5.87181 21 ft 11 kts 34°
2026-04-25 18:45 54.61628 -5.87110 21 ft 10 kts 34°
2026-04-25 18:46 54.61680 -5.87046 21 ft 9 kts 35°
2026-04-25 18:46 54.61735 -5.86991 21 ft 12 kts 11°
2026-04-25 18:46 54.61762 -5.87006 20 ft 0 kts 322°
2026-04-25 18:46 54.61763 -5.87008 20 ft 2 kts 321°
2026-04-25 18:47 54.61808 -5.87111 20 ft 15 kts 305°
2026-04-25 18:47 54.61887 -5.87159 23 ft 12 kts 30°
2026-04-25 18:47 54.61955 -5.87075 20 ft 12 kts 35°
2026-04-25 18:47 54.62020 -5.86999 20 ft 10 kts 34°
2026-04-25 18:48 54.62073 -5.86937 20 ft 9 kts 34°
2026-04-25 18:48 54.62132 -5.86867 20 ft 13 kts 34°
2026-04-25 18:48 54.62216 -5.86768 22 ft 15 kts 34°
2026-04-25 18:48 54.62299 -5.86669 21 ft 15 kts 34°
2026-04-25 18:49 54.62378 -5.86575 22 ft 13 kts 31°
2026-04-25 18:49 54.62458 -5.86542 22 ft 11 kts 21°
2026-04-25 18:49 54.62460 -5.86470 23 ft 4 kts 194°
2026-04-25 18:49 54.62442 -5.86498 22 ft 0 kts 214°
2026-04-25 18:50 54.62414 -5.86531 22 ft 26 kts 214°
2026-04-25 18:50 54.61997 -5.87027 20 ft 116 kts 215°
2026-04-25 18:51 54.61172 -5.88013 347 ft 149 kts 214°
2026-04-25 18:51 54.60615 -5.88693 844 ft 154 kts 213°
2026-04-25 18:51 54.59316 -5.90240 1152 ft 191 kts 214°
2026-04-25 18:51 54.58152 -5.91627 1471 ft 216 kts 213°
2026-04-25 18:52 54.56699 -5.92619 1914 ft 239 kts 182°
2026-04-25 18:52 54.55075 -5.91868 2617 ft 251 kts 150°
2026-04-25 18:52 54.53624 -5.90105 3482 ft 259 kts 140°
2026-04-25 18:52 54.52261 -5.88040 4377 ft 264 kts 138°
2026-04-25 18:53 54.50892 -5.85910 5283 ft 268 kts 140°
2026-04-25 18:53 54.49441 -5.83854 6170 ft 271 kts 143°
2026-04-25 18:53 54.47955 -5.81916 7037 ft 274 kts 145°
2026-04-25 18:53 54.46408 -5.79996 7907 ft 276 kts 146°
2026-04-25 18:54 54.43235 -5.76174 9669 ft 281 kts 147°
2026-04-25 18:54 54.41617 -5.74247 10438 ft 288 kts 147°
2026-04-25 18:54 54.39904 -5.72211 10700 ft 311 kts 147°
2026-04-25 18:55 54.38092 -5.70055 11256 ft 322 kts 147°
2026-04-25 18:55 54.36242 -5.67845 11947 ft 327 kts 147°
2026-04-25 18:55 54.34359 -5.65594 12677 ft 332 kts 147°
2026-04-25 18:55 54.32448 -5.63317 13406 ft 337 kts 147°
2026-04-25 18:56 54.30518 -5.61018 14103 ft 341 kts 147°
2026-04-25 18:56 54.28556 -5.58678 14739 ft 345 kts 146°
2026-04-25 18:56 54.26772 -5.55959 15358 ft 352 kts 134°
2026-04-25 18:56 54.25265 -5.52621 15988 ft 357 kts 128°
2026-04-25 18:57 54.23791 -5.49102 16619 ft 361 kts 128°
2026-04-25 18:57 54.22353 -5.45689 17214 ft 365 kts 128°
2026-04-25 18:57 54.20834 -5.42104 17830 ft 369 kts 128°
2026-04-25 18:57 54.19830 -5.39737 18226 ft 372 kts 128°
2026-04-25 18:58 54.17790 -5.34925 18973 ft 377 kts 128°
2026-04-25 18:58 54.14705 -5.27643 20027 ft 384 kts 128°
2026-04-25 18:58 54.13136 -5.23938 20541 ft 388 kts 128°
2026-04-25 18:59 54.09949 -5.16454 21649 ft 393 kts 128°
2026-04-25 18:59 54.06695 -5.08868 22735 ft 399 kts 128°
2026-04-25 19:00 54.03415 -5.01240 23210 ft 398 kts 128°
2026-04-25 19:00 54.01812 -4.97504 23217 ft 386 kts 128°
2026-04-25 19:01 53.98660 -4.90190 23217 ft 383 kts 128°
2026-04-25 19:01 53.97160 -4.86710 23214 ft 382 kts 128°
2026-04-25 19:01 53.95549 -4.82983 23217 ft 382 kts 128°
2026-04-25 19:01 53.94101 -4.79644 23217 ft 382 kts 128°
2026-04-25 19:02 53.91070 -4.72678 23217 ft 382 kts 128°
2026-04-25 19:02 53.89546 -4.69183 23202 ft 384 kts 128°
2026-04-25 19:02 53.88005 -4.65654 23206 ft 385 kts 128°
2026-04-25 19:03 53.85934 -4.60917 23205 ft 385 kts 128°
2026-04-25 19:03 53.83422 -4.55181 23209 ft 385 kts 128°
2026-04-25 19:03 53.81885 -4.51672 23210 ft 385 kts 128°
2026-04-25 19:04 53.78729 -4.44486 23217 ft 385 kts 128°
2026-04-25 19:04 53.77153 -4.40901 23222 ft 385 kts 128°
2026-04-25 19:05 53.74160 -4.34095 23063 ft 380 kts 128°
2026-04-25 19:05 53.71157 -4.27300 22542 ft 365 kts 129°
2026-04-25 19:05 53.69679 -4.23971 22284 ft 362 kts 129°
2026-04-25 19:06 53.68187 -4.20620 22007 ft 361 kts 129°
2026-04-25 19:06 53.65195 -4.13903 21243 ft 356 kts 128°
2026-04-25 19:06 53.63762 -4.10578 20820 ft 355 kts 123°
2026-04-25 19:07 53.61701 -4.03049 20029 ft 353 kts 113°
2026-04-25 19:07 53.60767 -3.99243 19644 ft 351 kts 114°
2026-04-25 19:08 53.58903 -3.91698 18903 ft 347 kts 114°
2026-04-25 19:08 53.57980 -3.87978 18551 ft 345 kts 114°
2026-04-25 19:09 53.55292 -3.77213 17438 ft 338 kts 114°
2026-04-25 19:09 53.54678 -3.74757 17201 ft 336 kts 114°
2026-04-25 19:09 53.52798 -3.66286 16394 ft 331 kts 98°
2026-04-25 19:10 53.52738 -3.62435 16049 ft 329 kts 89°
2026-04-25 19:10 53.52788 -3.58597 15704 ft 327 kts 89°
2026-04-25 19:10 53.52845 -3.54781 15373 ft 325 kts 89°
2026-04-25 19:10 53.52905 -3.50992 15047 ft 323 kts 89°
2026-04-25 19:11 53.52963 -3.47227 14727 ft 321 kts 89°
2026-04-25 19:11 53.53017 -3.43485 14407 ft 319 kts 89°
2026-04-25 19:11 53.53065 -3.39819 14098 ft 317 kts 89°
2026-04-25 19:11 53.53113 -3.36123 13753 ft 315 kts 89°
2026-04-25 19:12 53.53160 -3.32450 13399 ft 313 kts 89°
2026-04-25 19:12 53.53206 -3.28811 13045 ft 311 kts 89°
2026-04-25 19:12 53.53251 -3.25183 12694 ft 309 kts 89°
2026-04-25 19:12 53.53295 -3.21600 12340 ft 307 kts 89°
2026-04-25 19:13 53.53336 -3.18023 12003 ft 305 kts 89°
2026-04-25 19:13 53.53375 -3.14473 11653 ft 303 kts 89°
2026-04-25 19:13 53.53413 -3.10958 11299 ft 301 kts 89°
2026-04-25 19:13 53.53451 -3.07451 10935 ft 301 kts 89°
2026-04-25 19:14 53.53488 -3.03944 10607 ft 298 kts 89°
2026-04-25 19:14 53.53499 -3.02822 10495 ft 298 kts 89°
2026-04-25 19:14 53.53556 -2.97016 9905 ft 295 kts 90°
2026-04-25 19:14 53.53588 -2.93614 9547 ft 292 kts 89°
2026-04-25 19:15 53.53621 -2.90210 9165 ft 290 kts 89°
2026-04-25 19:15 53.53654 -2.86842 8776 ft 289 kts 89°
2026-04-25 19:15 53.53684 -2.83541 8422 ft 286 kts 89°
2026-04-25 19:15 53.53714 -2.80221 8051 ft 284 kts 89°
2026-04-25 19:16 53.53750 -2.76875 7674 ft 282 kts 89°
2026-04-25 19:16 53.53785 -2.73590 7304 ft 279 kts 89°
2026-04-25 19:16 53.53874 -2.70385 6947 ft 277 kts 85°
2026-04-25 19:16 53.54028 -2.67184 6562 ft 275 kts 85°
2026-04-25 19:17 53.54189 -2.63990 6252 ft 272 kts 85°
2026-04-25 19:17 53.54349 -2.60816 6228 ft 273 kts 85°
2026-04-25 19:17 53.54511 -2.57624 6232 ft 275 kts 85°
2026-04-25 19:17 53.54680 -2.54421 6231 ft 276 kts 85°
2026-04-25 19:18 53.54853 -2.51207 6232 ft 276 kts 85°
2026-04-25 19:18 53.55022 -2.48007 6233 ft 276 kts 85°
2026-04-25 19:18 53.55192 -2.44795 6233 ft 276 kts 85°
2026-04-25 19:18 53.55364 -2.41576 6233 ft 276 kts 85°
2026-04-25 19:19 53.55534 -2.38356 6234 ft 276 kts 85°
2026-04-25 19:19 53.55702 -2.35140 6234 ft 276 kts 85°
2026-04-25 19:19 53.55872 -2.31919 6233 ft 276 kts 85°
2026-04-25 19:19 53.55929 -2.30838 6234 ft 276 kts 85°
2026-04-25 19:20 53.56207 -2.25507 6247 ft 276 kts 85°
2026-04-25 19:20 53.56378 -2.22289 6247 ft 277 kts 85°
2026-04-25 19:20 53.56549 -2.19065 6231 ft 276 kts 85°
2026-04-25 19:20 53.56716 -2.15880 5863 ft 273 kts 85°
2026-04-25 19:21 53.56882 -2.12801 5681 ft 261 kts 85°
2026-04-25 19:21 53.56340 -2.07407 5430 ft 234 kts 130°
2026-04-25 19:21 53.55277 -2.05585 5322 ft 223 kts 139°
2026-04-25 19:22 53.54214 -2.04002 5207 ft 213 kts 140°
2026-04-25 19:22 53.53198 -2.02517 5095 ft 205 kts 140°
2026-04-25 19:22 53.51109 -1.99679 4691 ft 188 kts 159°
2026-04-25 19:23 53.49865 -1.99334 4410 ft 185 kts 186°
2026-04-25 19:23 53.47782 -2.01645 3942 ft 188 kts 230°
2026-04-25 19:23 53.46969 -2.03355 3688 ft 186 kts 229°
2026-04-25 19:24 53.46220 -2.04927 3458 ft 175 kts 230°
2026-04-25 19:24 53.45477 -2.06481 3221 ft 171 kts 231°
2026-04-25 19:24 53.44097 -2.09362 2796 ft 168 kts 229°
2026-04-25 19:25 53.42687 -2.12299 2338 ft 169 kts 229°
2026-04-25 19:25 53.41958 -2.13818 2113 ft 169 kts 230°
2026-04-25 19:25 53.41256 -2.15278 1888 ft 169 kts 229°
2026-04-25 19:26 53.40560 -2.16727 1687 ft 168 kts 230°
2026-04-25 19:26 53.39819 -2.18268 1451 ft 168 kts 229°
2026-04-25 19:26 53.39160 -2.19636 1255 ft 161 kts 230°
2026-04-25 19:26 53.38494 -2.21020 1035 ft 154 kts 231°
2026-04-25 19:27 53.37817 -2.22407 806 ft 152 kts 231°
2026-04-25 19:27 53.37589 -2.22870 743 ft 152 kts 232°
2026-04-25 19:27 53.36517 -2.25106 409 ft 149 kts 234°
2026-04-25 19:27 53.35895 -2.26434 270 ft 144 kts 229°
2026-04-25 19:28 53.35379 -2.27492 243 ft 80 kts 231°
2026-04-25 19:28 53.35212 -2.27836 237 ft 12 kts 232°
2026-04-25 19:28 53.35153 -2.27963 234 ft 17 kts 232°
2026-04-25 19:28 53.35095 -2.28131 233 ft 17 kts 282°
2026-04-25 19:29 53.35204 -2.28198 231 ft 16 kts
2026-04-25 19:29 53.35243 -2.28191 233 ft 2 kts
2026-04-25 19:29 53.35250 -2.28190 233 ft 0 kts
2026-04-25 19:29 53.35268 -2.28187 232 ft 5 kts
2026-04-25 19:30 53.35290 -2.28177 233 ft 1 kts 20°
2026-04-25 19:30 53.35307 -2.28160 234 ft 7 kts 36°
2026-04-25 19:30 53.35350 -2.28092 236 ft 5 kts 43°
2026-04-25 19:30 53.35351 -2.28091 236 ft 0 kts 43°
2026-04-25 19:31 53.35352 -2.28088 236 ft 3 kts 43°
2026-04-25 19:31 53.35389 -2.28031 237 ft 8 kts 43°
2026-04-25 19:32 53.35423 -2.27977 237 ft 6 kts 44°
2026-04-25 19:32 53.35468 -2.27926 239 ft 11 kts 16°
2026-04-25 19:32 53.35561 -2.27907 237 ft 19 kts
2026-04-25 19:32 53.35605 -2.27899 239 ft 18 kts
2026-04-25 19:33 53.35798 -2.27866 250 ft 15 kts
2026-04-25 19:33 53.35896 -2.27850 255 ft 13 kts
2026-04-25 19:33 53.35984 -2.27890 255 ft 9 kts 323°
2026-04-25 19:33 53.36037 -2.27971 255 ft 12 kts 318°
2026-04-25 19:34 53.36110 -2.28076 255 ft 15 kts 317°
2026-04-25 19:34 53.36165 -2.28152 255 ft 16 kts 341°
2026-04-25 19:34 53.36302 -2.28055 255 ft 18 kts 19°
2026-04-25 19:34 53.36409 -2.27933 255 ft 19 kts 13°
2026-04-25 19:35 53.36460 -2.27893 255 ft 10 kts 34°
2026-04-25 19:35 53.36489 -2.27849 255 ft 2 kts 44°
2026-04-25 19:35 53.36489 -2.27848 255 ft 0 kts 44°